Powrót do katalogu

STARLINK-34897

AktywnyŁącznośćVLEO
NORAD 65212·PAYLOAD·🇺🇸 United States

Wystrzelony Aug 14, 2025 z Cape Canaveral Space Force Station

Loading…

Następne Przeloty (najbliższe 24 godziny)

TLE

ŚwieżeSource: CelesTrak SupGP

Epoka: Sep 14, 2026, 21:14 UTC

1 65212C 25176Q   26257.88520833 -.00003566  00000+0 -10537-3 0  2573
2 65212  53.1589 349.9185 0001096  84.3405 281.1993 15.34385981    19

Śledź STARLINK-34897 w czasie rzeczywistym z AllMySat

Download on the App Store